Palmdale, CA

2:42 PM PDT on August 20, 2017 (GMT -0700)
Palmdale Af Plant 42

Weather History for KPMD - May, 2013

Change the Weather History Date:

Thursday, May 23, 2013

  Actual Average Record
Temperature  
Mean Temperature 61 °F 70 °F  
Max Temperature 74 °F 85 °F 102 °F (2000)
Min Temperature 47 °F 54 °F 42 °F (2010)
Degree Days  
Heating Degree Days 4 2  
Month to date heating degree days 30 60  
Since 1 July heating degree days 2545 2910  
Cooling Degree Days 0 6  
Month to date cooling degree days 118 91  
Year to date cooling degree days 191 114  
Growing Degree Days 10 (Base 50)    
Moisture  
Dew Point 33 °F    
Average Humidity 40    
Maximum Humidity 62    
Minimum Humidity 17    
Precipitation  
Precipitation 0.00 in 0.00 in 0.18 in (1999)
Month to date precipitation T 0.22  
Year to date precipitation 0.71 5.20  
Since 1 July precipitation 1.00  
Snow  
Snow 0.00 in - - ()
Month to date snowfall 0.0  
Since 1 July snowfall 0.0  
Snow Depth 0.00 in    
Sea Level Pressure  
Sea Level Pressure 29.82 in    
Wind  
Wind Speed 13 mph (WSW)    
Max Wind Speed 25 mph    
Max Gust Speed 29 mph    
Visibility 10 miles    
Events      
T = Trace of Precipitation, MM = Missing Value Source: NWS Daily Summary

Daily Weather History Graph

Daily Weather History Graph

Search for Another Location

Airport or City:

Trip Planner

Search our weather history database for the weather conditions in past years. The results will help you decide how hot, cold, wet, or windy it might be!

Date:

Astronomy

May. 23, 2013 Rise Set
Actual Time 5:44 AM PDT 7:54 PM PDT
Civil Twilight 5:15 AM PDT 8:22 PM PDT
Nautical Twilight 4:40 AM PDT 8:57 PM PDT
Astronomical Twilight 4:03 AM PDT 9:35 PM PDT
Moon 6:35 PM PDT (5/23) 4:28 AM PDT (5/23)
Length of Visible Light 15h 07m
Length of Day
14h 10m
Waxing Gibbous, 97% of the Moon is Illuminated
May 23
Waxing Gibbous
May 24
Full
May 31
Last Quarter
Jun 8
New
Jun 16
First Quarter

Hourly Weather History & Observations

Time (PDT) Temp. Dew Point Humidity Pressure Visibility Wind Dir Wind Speed Gust Speed Precip Events Conditions
12:53 AM 54.0 °F 35.1 °F 49% 29.78 in 10.0 mi West 9.2 mph - N/A   Clear
1:53 AM 54.0 °F 34.0 °F 47% 29.78 in 10.0 mi WSW 5.8 mph - N/A   Clear
2:53 AM 51.1 °F 28.9 °F 43% 29.78 in 10.0 mi West 8.1 mph - N/A   Clear
3:53 AM 50.0 °F 30.0 °F 46% 29.77 in 10.0 mi WSW 9.2 mph - N/A   Clear
4:53 AM 48.0 °F 26.1 °F 42% 29.78 in 10.0 mi West 5.8 mph - N/A   Clear
5:53 AM 50.0 °F 19.9 °F 31% 29.79 in 10.0 mi WSW 4.6 mph - N/A   Clear
6:53 AM 54.0 °F 23.0 °F 30% 29.80 in 10.0 mi West 6.9 mph - N/A   Clear
7:53 AM 57.9 °F 24.1 °F 27% 29.81 in 10.0 mi WSW 10.4 mph - N/A   Clear
8:53 AM 63.0 °F 17.1 °F 17% 29.81 in 10.0 mi West 16.1 mph 21.9 mph N/A   Clear
9:53 AM 64.9 °F 19.0 °F 17% 29.82 in 10.0 mi West 15.0 mph 25.3 mph N/A   Clear
10:53 AM 66.0 °F 30.0 °F 26% 29.82 in 10.0 mi SW 10.4 mph 18.4 mph N/A   Clear
11:53 AM 70.0 °F 32.0 °F 25% 29.81 in 10.0 mi SW 16.1 mph 27.6 mph N/A   Clear
12:53 PM 72.0 °F 34.0 °F 25% 29.81 in 10.0 mi SW 18.4 mph 24.2 mph N/A   Clear
1:53 PM 73.9 °F 36.0 °F 25% 29.81 in 10.0 mi SW 20.7 mph 25.3 mph N/A   Clear
2:53 PM 72.0 °F 37.9 °F 29% 29.82 in 10.0 mi SW 16.1 mph 26.5 mph N/A   Clear
3:53 PM 73.9 °F 37.9 °F 27% 29.81 in 10.0 mi West 16.1 mph 27.6 mph N/A   Clear
4:53 PM 71.1 °F 41.0 °F 34% 29.82 in 10.0 mi West 24.2 mph 27.6 mph N/A   Clear
5:53 PM 68.0 °F 45.0 °F 43% 29.83 in 10.0 mi West 18.4 mph 27.6 mph N/A   Clear
6:53 PM 66.9 °F 45.0 °F 45% 29.83 in 10.0 mi WSW 18.4 mph - N/A   Clear
7:53 PM 63.0 °F 46.0 °F 54% 29.84 in 10.0 mi WSW 16.1 mph - N/A   Clear
8:53 PM 61.0 °F 44.1 °F 54% 29.85 in 10.0 mi West 15.0 mph - N/A   Clear
9:53 PM 57.9 °F 44.1 °F 60% 29.88 in 10.0 mi West 9.2 mph - N/A   Clear
10:53 PM 57.9 °F 39.9 °F 51% 29.90 in 10.0 mi West 12.7 mph - N/A   Clear
11:53 PM 57.0 °F 28.0 °F 33% 29.88 in 10.0 mi West 13.8 mph - N/A   Clear